,,,PA_Meas_PMT16A,,PR_Meas_QMR101_102,,RH_Meas_QMH101,,SR_Meas_QMS101,,TA_Meas_QMH101,,GenWind,,GenWind,
date,time,status,PA,status,PR,status,RH,status,SR,status,TA,status,DirAvg,status,SpdAvg,
2011-03-03, 00:00:04,VALID,1000.62,VALID,0,VALID,83.9945,VALID,0,VALID,23.1354,VALID,109,VALID,0.662891,
2011-03-03, 00:01:04,VALID,1000.6,VALID,0,VALID,84.498,VALID,0,VALID,23.1957,VALID,78,VALID,0.640234,
2011-03-03, 00:02:04,VALID,1000.61,VALID,0,VALID,84.3226,VALID,0,VALID,23.1549,VALID,111,VALID,0.617969,
2011-03-03, 00:03:04,VALID,1000.58,VALID,0,VALID,84.4752,VALID,0,VALID,23.1744,VALID,119,VALID,0.511328,
2011-03-03, 00:04:04,VALID,1000.53,VALID,0,VALID,84.4904,VALID,0,VALID,23.1566,VALID,119,VALID,0.414844,
2011-03-03, 00:05:04,VALID,1000.5,VALID,0,VALID,84.5286,VALID,0,VALID,23.1159,VALID,119,VALID,0.194141,
2011-03-03, 00:06:04,VALID,1000.47,VALID,0,VALID,84.7346,VALID,0,VALID,23.1159,VALID,119,VALID,0,
2011-03-03, 00:07:04,VALID,1000.46,VALID,0,VALID,84.7498,VALID,0,VALID,23.0769,VALID,119,VALID,0.0617188,
2011-03-03, 00:08:04,VALID,1000.46,VALID,0,VALID,85.1084,VALID,0,VALID,23.0769,VALID,119,VALID,0.309375,
2011-03-03, 00:09:04,VALID,1000.49,VALID,0,VALID,85.5051,VALID,0,VALID,23.0378,VALID,117,VALID,0.459375,
2011-03-03, 00:10:04,VALID,1000.47,VALID,0,VALID,85.7951,VALID,0,VALID,23.0201,VALID,26,VALID,0.691406,
2011-03-03, 00:11:04,VALID,1000.46,VALID,0,VALID,86.0392,VALID,0,VALID,22.9811,VALID,22,VALID,0.627344,
2011-03-03, 00:12:04,VALID,1000.46,VALID,0,VALID,86.0545,VALID,0,VALID,22.942,VALID,22,VALID,0.497266,
2011-03-03, 00:13:04,VALID,1000.44,VALID,0,VALID,85.7569,VALID,0,VALID,22.9615,VALID,55,VALID,0.79375,
2011-03-03, 00:14:04,VALID,1000.42,VALID,0,VALID,85.7722,VALID,0,VALID,22.9598,VALID,79,VALID,0.533203,
2011-03-03, 00:15:04,VALID,1000.42,VALID,0,VALID,86.024,VALID,0,VALID,22.9403,VALID,80,VALID,0.0980469,
2011-03-03, 00:16:04,VALID,1000.42,VALID,0,VALID,86.2376,VALID,0,VALID,22.9208,VALID,88,VALID,0.275391,
2011-03-03, 00:17:04,VALID,1000.41,VALID,0,VALID,86.1842,VALID,0,VALID,22.8818,VALID,178,VALID,0.602344,
2011-03-03, 00:18:04,VALID,1000.35,VALID,0,VALID,86.352,VALID,0,VALID,22.8623,VALID,178,VALID,0.710938,
2011-03-03, 00:19:04,VALID,1000.31,VALID,0,VALID,86.4665,VALID,0,VALID,22.8427,VALID,169,VALID,0.453906,
2011-03-03, 00:20:04,VALID,1000.31,VALID,0,VALID,86.2452,VALID,0,VALID,22.8232,VALID,169,VALID,0.0625,
2011-03-03, 00:21:04,VALID,1000.33,VALID,0,VALID,86.1918,VALID,0,VALID,22.8037,VALID,169,VALID,0.00351562,
2011-03-03, 00:22:04,VALID,1000.32,VALID,0,VALID,86.4131,VALID,0,VALID,22.8232,VALID,169,VALID,0.382422,
2011-03-03, 00:23:04,VALID,1000.31,VALID,0,VALID,86.3368,VALID,0,VALID,22.8427,VALID,169,VALID,0.377344,
2011-03-03, 00:24:04,VALID,1000.29,VALID,0,VALID,86.4283,VALID,0,VALID,22.8232,VALID,169,VALID,0.3125,
2011-03-03, 00:25:04,VALID,1000.31,VALID,0,VALID,86.5809,VALID,0,VALID,22.8232,VALID,169,VALID,0.297656,
2011-03-03, 00:26:04,VALID,1000.29,VALID,0,VALID,86.5123,VALID,0,VALID,22.7842,VALID,169,VALID,0.105078,
2011-03-03, 00:27:04,VALID,1000.28,VALID,0,VALID,86.2605,VALID,0,VALID,22.7842,VALID,169,VALID,0.00429688,
2011-03-03, 00:28:04,VALID,1000.25,VALID,0,VALID,86.2147,VALID,0,VALID,22.7647,VALID,169,VALID,0.11875,
2011-03-03, 00:29:04,VALID,1000.22,VALID,0,VALID,85.9095,VALID,0,VALID,22.7647,VALID,169,VALID,0.488281,
2011-03-03, 00:30:04,VALID,1000.19,VALID,0,VALID,85.6806,VALID,0,VALID,22.8037,VALID,108,VALID,1.2043,
2011-03-03, 00:31:04,VALID,1000.2,VALID,0,VALID,85.4594,VALID,0,VALID,22.8818,VALID,109,VALID,1.32383,
2011-03-03, 00:32:04,VALID,1000.2,VALID,0,VALID,85.6425,VALID,0,VALID,22.9225,VALID,104,VALID,1.33672,
2011-03-03, 00:33:04,VALID,1000.22,VALID,0,VALID,85.8485,VALID,0,VALID,22.9013,VALID,106,VALID,0.836328,
2011-03-03, 00:34:04,VALID,1000.21,VALID,0,VALID,85.8943,VALID,0,VALID,22.8427,VALID,97,VALID,1.05313,
2011-03-03, 00:35:04,VALID,1000.22,VALID,0,VALID,86.1994,VALID,0,VALID,22.8427,VALID,91,VALID,0.804688,
2011-03-03, 00:36:04,VALID,1000.25,VALID,0,VALID,86.5046,VALID,0,VALID,22.7842,VALID,72,VALID,0.517187,
2011-03-03, 00:37:04,VALID,1000.27,VALID,0,VALID,86.7335,VALID,0,VALID,22.7257,VALID,62,VALID,0.313672,
2011-03-03, 00:38:04,VALID,1000.27,VALID,0,VALID,87.0082,VALID,0,VALID,22.6867,VALID,62,VALID,0.293359,
2011-03-03, 00:39:04,VALID,1000.24,VALID,0,VALID,87.3363,VALID,0,VALID,22.6494,VALID,62,VALID,0.332422,
2011-03-03, 00:40:04,VALID,1000.22,VALID,0,VALID,87.6796,VALID,0,VALID,22.5696,VALID,96,VALID,0.662109,
2011-03-03, 00:41:04,VALID,1000.22,VALID,0,VALID,88.0153,VALID,0,VALID,22.5111,VALID,106,VALID,0.685156,
2011-03-03, 00:42:04,VALID,1000.2,VALID,0,VALID,87.9466,VALID,0,VALID,22.4721,VALID,108,VALID,0.830469,
2011-03-03, 00:43:04,VALID,1000.17,VALID,0,VALID,87.588,VALID,0,VALID,22.4916,VALID,100,VALID,1.31953,
2011-03-03, 00:44:04,VALID,1000.17,VALID,0,VALID,87.3134,VALID,0,VALID,22.5892,VALID,93,VALID,1.43516,
2011-03-03, 00:45:04,VALID,1000.19,VALID,0,VALID,86.9319,VALID,0,VALID,22.6884,VALID,76,VALID,0.894531,
2011-03-03, 00:46:04,VALID,1000.18,VALID,0,VALID,86.8632,VALID,0,VALID,22.7062,VALID,79,VALID,1.04141,
2011-03-03, 00:47:04,VALID,1000.15,VALID,0,VALID,86.9472,VALID,0,VALID,22.7062,VALID,67,VALID,1.18398,
2011-03-03, 00:48:04,VALID,1000.15,VALID,0,VALID,87.0387,VALID,0,VALID,22.6867,VALID,59,VALID,1.08711,
2011-03-03, 00:49:04,VALID,1000.13,VALID,0,VALID,87.0616,VALID,0,VALID,22.6672,VALID,51,VALID,0.737109,
2011-03-03, 00:50:04,VALID,1000.12,VALID,0,VALID,87.2371,VALID,0,VALID,22.6672,VALID,75,VALID,0.742188,
2011-03-03, 00:51:04,VALID,1000.04,VALID,0,VALID,87.2371,VALID,0,VALID,22.6477,VALID,78,VALID,1.02461,
2011-03-03, 00:52:04,VALID,1000.05,VALID,0,VALID,87.2066,VALID,0,VALID,22.6689,VALID,78,VALID,0.961719,
2011-03-03, 00:53:04,VALID,1000.03,VALID,0,VALID,87.4049,VALID,0,VALID,22.6477,VALID,78,VALID,0.713281,
2011-03-03, 00:54:04,VALID,1000.03,VALID,0,VALID,87.3973,VALID,0,VALID,22.6477,VALID,79,VALID,0.539844,
2011-03-03, 00:55:04,VALID,1000.04,VALID,0,VALID,87.4202,VALID,0,VALID,22.6494,VALID,79,VALID,0.0835937,
2011-03-03, 00:56:04,VALID,1000.04,VALID,0,VALID,87.4736,VALID,0,VALID,22.6282,VALID,79,VALID,0,
2011-03-03, 00:57:04,VALID,1000.02,VALID,0,VALID,87.4812,VALID,0,VALID,22.6282,VALID,79,VALID,0.236328,
2011-03-03, 00:58:04,VALID,1000.03,VALID,0,VALID,87.8017,VALID,0,VALID,22.6494,VALID,79,VALID,0.0121094,
2011-03-03, 00:59:04,VALID,1000.03,VALID,0,VALID,87.9314,VALID,0,VALID,22.6087,VALID,79,VALID,0.0558594,
2011-03-03, 01:00:04,VALID,1000.02,VALID,0,VALID,87.9466,VALID,0,VALID,22.6104,VALID,79,VALID,0.339453,
2011-03-03, 01:01:04,VALID,1000.02,VALID,0,VALID,87.8093,VALID,0,VALID,22.5909,VALID,79,VALID,0.0945313,
2011-03-03, 01:02:04,VALID,1000.03,VALID,0,VALID,87.9543,VALID,0,VALID,22.5909,VALID,79,VALID,0,
2011-03-03, 01:03:04,VALID,999.993,VALID,0,VALID,88.0687,VALID,0,VALID,22.5501,VALID,79,VALID,0.501172,
2011-03-03, 01:04:04,VALID,1000.01,VALID,0,VALID,88.29,VALID,0,VALID,22.5909,VALID,61,VALID,0.748438,
2011-03-03, 01:05:04,VALID,1000.02,VALID,0,VALID,88.2137,VALID,0,VALID,22.5306,VALID,61,VALID,0.434766,
2011-03-03, 01:06:04,VALID,1000.04,VALID,0,VALID,88.5036,VALID,0,VALID,22.5501,VALID,317,VALID,0.666406,
2011-03-03, 01:07:04,VALID,1000.07,VALID,0,VALID,88.5494,VALID,0,VALID,22.5306,VALID,317,VALID,0.60625,
2011-03-03, 01:08:04,VALID,1000.05,VALID,0,VALID,88.4426,VALID,0,VALID,22.5501,VALID,309,VALID,0.358594,
2011-03-03, 01:09:04,VALID,1000.03,VALID,0,VALID,88.4578,VALID,0,VALID,22.5892,VALID,309,VALID,0.421875,
2011-03-03, 01:10:04,VALID,999.986,VALID,0,VALID,87.7788,VALID,0,VALID,22.5696,VALID,114,VALID,1.44297,
2011-03-03, 01:11:04,VALID,999.981,VALID,0,VALID,86.909,VALID,0,VALID,22.6494,VALID,110,VALID,2.01641,
2011-03-03, 01:12:04,VALID,999.945,VALID,0,VALID,86.3139,VALID,0,VALID,22.7274,VALID,106,VALID,1.91602,
2011-03-03, 01:13:04,VALID,999.976,VALID,0,VALID,86.0545,VALID,0,VALID,22.7842,VALID,85,VALID,1.00156,
2011-03-03, 01:14:04,VALID,999.962,VALID,0,VALID,86.3978,VALID,0,VALID,22.8232,VALID,338,VALID,1.21953,
2011-03-03, 01:15:04,VALID,999.971,VALID,0,VALID,86.5046,VALID,0,VALID,22.8037,VALID,345,VALID,1.28086,
2011-03-03, 01:16:04,VALID,999.984,VALID,0,VALID,86.909,VALID,0,VALID,22.8232,VALID,344,VALID,1.03008,
2011-03-03, 01:17:04,VALID,999.923,VALID,0,VALID,87.2981,VALID,0,VALID,22.8037,VALID,344,VALID,0.518359,
2011-03-03, 01:18:04,VALID,999.903,VALID,0,VALID,87.5575,VALID,0,VALID,22.7647,VALID,328,VALID,0.364453,
2011-03-03, 01:19:04,VALID,999.888,VALID,0,VALID,87.6033,VALID,0,VALID,22.7452,VALID,230,VALID,0.623047,
2011-03-03, 01:20:04,VALID,999.882,VALID,0,VALID,87.5117,VALID,0,VALID,22.7452,VALID,188,VALID,0.492969,
2011-03-03, 01:21:04,VALID,999.858,VALID,0,VALID,87.2676,VALID,0,VALID,22.7469,VALID,188,VALID,0.294531,
2011-03-03, 01:22:04,VALID,999.856,VALID,0,VALID,87.1226,VALID,0,VALID,22.7257,VALID,144,VALID,0.592188,
2011-03-03, 01:23:04,VALID,999.835,VALID,0,VALID,87.0692,VALID,0,VALID,22.7062,VALID,102,VALID,0.716797,
2011-03-03, 01:24:04,VALID,999.797,VALID,0,VALID,87.1226,VALID,0,VALID,22.7257,VALID,69,VALID,0.927734,
2011-03-03, 01:25:04,VALID,999.822,VALID,0,VALID,87.2447,VALID,0,VALID,22.7647,VALID,69,VALID,0.554297,
2011-03-03, 01:26:04,VALID,999.829,VALID,0,VALID,87.3897,VALID,0,VALID,22.786,VALID,69,VALID,0.614844,
2011-03-03, 01:27:04,VALID,999.848,VALID,0,VALID,87.2981,VALID,0,VALID,22.7647,VALID,11,VALID,1.00234,
2011-03-03, 01:28:04,VALID,999.806,VALID,0,VALID,86.9777,VALID,0,VALID,22.7452,VALID,11,VALID,1.02539,
2011-03-03, 01:29:04,VALID,999.798,VALID,0,VALID,86.1308,VALID,0,VALID,22.7452,VALID,48,VALID,1.40859,
2011-03-03, 01:30:04,VALID,999.791,VALID,0,VALID,85.8561,VALID,0,VALID,22.7842,VALID,47,VALID,1.7957,
2011-03-03, 01:31:04,VALID,999.81,VALID,0,VALID,85.8256,VALID,0,VALID,22.8232,VALID,30,VALID,1.5082,
2011-03-03, 01:32:04,VALID,999.841,VALID,0,VALID,86.085,VALID,0,VALID,22.8445,VALID,14,VALID,1.49805,
2011-03-03, 01:33:04,VALID,999.844,VALID,0,VALID,86.3826,VALID,0,VALID,22.8232,VALID,1,VALID,1.14102,
2011-03-03, 01:34:04,VALID,999.807,VALID,0,VALID,86.6649,VALID,0,VALID,22.8037,VALID,20,VALID,0.961719,
2011-03-03, 01:35:04,VALID,999.751,VALID,0,VALID,86.909,VALID,0,VALID,22.786,VALID,54,VALID,1.41758,
2011-03-03, 01:36:04,VALID,999.726,VALID,0,VALID,87.0158,VALID,0,VALID,22.7647,VALID,56,VALID,1.34258,
2011-03-03, 01:37:04,VALID,999.704,VALID,0,VALID,87.2066,VALID,0,VALID,22.7257,VALID,61,VALID,0.841016,
2011-03-03, 01:38:04,VALID,999.752,VALID,0,VALID,87.2905,VALID,0,VALID,22.7257,VALID,294,VALID,1.00664,
2011-03-03, 01:39:04,VALID,999.751,VALID,0,VALID,87.2447,VALID,0,VALID,22.7469,VALID,262,VALID,1.4707,
2011-03-03, 01:40:04,VALID,999.742,VALID,0,VALID,86.8556,VALID,0,VALID,22.7647,VALID,222,VALID,0.860156,
2011-03-03, 01:41:04,VALID,999.691,VALID,0,VALID,86.5199,VALID,0,VALID,22.7842,VALID,220,VALID,0.565625,
2011-03-03, 01:42:04,VALID,999.649,VALID,0,VALID,86.3826,VALID,0,VALID,22.8037,VALID,179,VALID,0.605469,
2011-03-03, 01:43:04,VALID,999.654,VALID,0,VALID,86.1994,VALID,0,VALID,22.8055,VALID,136,VALID,0.465234,
2011-03-03, 01:44:04,VALID,999.641,VALID,0,VALID,86.2147,VALID,0,VALID,22.8037,VALID,68,VALID,0.925391,
2011-03-03, 01:45:04,VALID,999.668,VALID,0,VALID,86.1994,VALID,0,VALID,22.8232,VALID,331,VALID,0.653125,
2011-03-03, 01:46:04,VALID,999.681,VALID,0,VALID,86.2986,VALID,0,VALID,22.8232,VALID,246,VALID,0.597656,
2011-03-03, 01:47:04,VALID,999.688,VALID,0,VALID,85.8332,VALID,0,VALID,22.8427,VALID,246,VALID,0.108203,
2011-03-03, 01:48:04,VALID,999.673,VALID,0,VALID,86.0011,VALID,0,VALID,22.8623,VALID,44,VALID,0.785547,
2011-03-03, 01:49:04,VALID,999.655,VALID,0,VALID,85.8637,VALID,0,VALID,22.8623,VALID,44,VALID,0.801562,
2011-03-03, 01:50:04,VALID,999.654,VALID,0,VALID,86.0926,VALID,0,VALID,22.8623,VALID,55,VALID,0.505469,
2011-03-03, 01:51:04,VALID,999.644,VALID,0,VALID,86.4665,VALID,0,VALID,22.8232,VALID,56,VALID,0.798437,
2011-03-03, 01:52:04,VALID,999.628,VALID,0,VALID,86.6877,VALID,0,VALID,22.8037,VALID,22,VALID,0.510547,
2011-03-03, 01:53:05,VALID,999.67,VALID,0,VALID,86.764,VALID,0,VALID,22.7842,VALID,16,VALID,0.170703,
2011-03-03, 01:54:05,VALID,999.643,VALID,0,VALID,86.8251,VALID,0,VALID,22.7647,VALID,16,VALID,0.157422,
2011-03-03, 01:55:05,VALID,999.635,VALID,0,VALID,86.9853,VALID,0,VALID,22.7452,VALID,22,VALID,0.541797,
2011-03-03, 01:56:05,VALID,999.615,VALID,0,VALID,86.8937,VALID,0,VALID,22.7469,VALID,22,VALID,0.375781,
2011-03-03, 01:57:05,VALID,999.645,VALID,0,VALID,86.8327,VALID,0,VALID,22.7257,VALID,22,VALID,0.150781,
2011-03-03, 01:58:05,VALID,999.631,VALID,0,VALID,86.8022,VALID,0,VALID,22.7257,VALID,22,VALID,0.0765625,
2011-03-03, 01:59:05,VALID,999.62,VALID,0,VALID,86.9014,VALID,0,VALID,22.7062,VALID,22,VALID,0.386719,
2011-03-03, 02:00:05,VALID,999.653,VALID,0,VALID,87.1303,VALID,0,VALID,22.7274,VALID,22,VALID,0.185937,
2011-03-03, 02:01:05,VALID,999.676,VALID,0,VALID,87.321,VALID,0,VALID,22.6867,VALID,22,VALID,0.483203,
2011-03-03, 02:02:05,VALID,999.705,VALID,0,VALID,87.7177,VALID,0,VALID,22.7079,VALID,23,VALID,1.73711,
2011-03-03, 02:03:05,VALID,999.715,VALID,0,VALID,88.0763,VALID,0,VALID,22.6689,VALID,48,VALID,1.12109,
2011-03-03, 02:04:05,VALID,999.725,VALID,0,VALID,88.3205,VALID,0,VALID,22.6494,VALID,63,VALID,0.962891,
2011-03-03, 02:05:05,VALID,999.724,VALID,0,VALID,88.496,VALID,0,VALID,22.6104,VALID,50,VALID,1.17461,
2011-03-03, 02:06:05,VALID,999.723,VALID,0,VALID,88.6562,VALID,0,VALID,22.5696,VALID,51,VALID,0.953906,
2011-03-03, 02:07:05,VALID,999.74,VALID,0,VALID,88.6943,VALID,0,VALID,22.5714,VALID,60,VALID,0.782031,
2011-03-03, 02:08:05,VALID,999.732,VALID,0,VALID,88.8774,VALID,0,VALID,22.5519,VALID,81,VALID,0.717578,
2011-03-03, 02:09:05,VALID,999.733,VALID,0,VALID,88.9843,VALID,0,VALID,22.5519,VALID,99,VALID,0.572266,
2011-03-03, 02:10:05,VALID,999.714,VALID,0,VALID,88.969,VALID,0,VALID,22.5323,VALID,105,VALID,0.417578,
2011-03-03, 02:11:05,VALID,999.731,VALID,0,VALID,88.9003,VALID,0,VALID,22.5323,VALID,105,VALID,0.388281,
2011-03-03, 02:12:05,VALID,999.71,VALID,0,VALID,88.8927,VALID,0,VALID,22.5323,VALID,123,VALID,0.45,
2011-03-03, 02:13:05,VALID,999.697,VALID,0,VALID,88.7554,VALID,0,VALID,22.5306,VALID,182,VALID,0.550391,
2011-03-03, 02:14:05,VALID,999.681,VALID,0,VALID,88.3892,VALID,0,VALID,22.5519,VALID,182,VALID,0.547656,
2011-03-03, 02:15:05,VALID,999.691,VALID,0,VALID,87.794,VALID,0,VALID,22.5892,VALID,192,VALID,0.652734,
2011-03-03, 02:16:05,VALID,999.65,VALID,0,VALID,86.9395,VALID,0,VALID,22.6672,VALID,230,VALID,0.991016,
2011-03-03, 02:17:05,VALID,999.621,VALID,0,VALID,86.5504,VALID,0,VALID,22.7664,VALID,208,VALID,0.641406,
2011-03-03, 02:18:05,VALID,999.609,VALID,0,VALID,86.3444,VALID,0,VALID,22.8055,VALID,182,VALID,0.695703,
2011-03-03, 02:19:05,VALID,999.6,VALID,0,VALID,86.5199,VALID,0,VALID,22.864,VALID,170,VALID,0.995703,
2011-03-03, 02:20:05,VALID,999.599,VALID,0,VALID,85.612,VALID,0,VALID,22.8623,VALID,147,VALID,0.919141,
2011-03-03, 02:21:05,VALID,999.583,VALID,0,VALID,85.4212,VALID,0,VALID,22.9013,VALID,143,VALID,0.704297,
2011-03-03, 02:22:05,VALID,999.529,VALID,0,VALID,85.7646,VALID,0,VALID,22.9403,VALID,235,VALID,0.698828,
2011-03-03, 02:23:05,VALID,999.539,VALID,0,VALID,85.7951,VALID,0,VALID,22.9598,VALID,257,VALID,0.631641,
2011-03-03, 02:24:05,VALID,999.522,VALID,0,VALID,85.528,VALID,0,VALID,22.9403,VALID,272,VALID,0.194141,
2011-03-03, 02:25:05,VALID,999.497,VALID,0,VALID,84.8872,VALID,0,VALID,22.9403,VALID,163,VALID,0.784375,
2011-03-03, 02:26:05,VALID,999.504,VALID,0,VALID,84.4523,VALID,0,VALID,22.9811,VALID,99,VALID,0.833203,
2011-03-03, 02:27:05,VALID,999.473,VALID,0,VALID,85.116,VALID,0,VALID,23.0183,VALID,38,VALID,1.50703,
2011-03-03, 02:28:05,VALID,999.522,VALID,0,VALID,85.3907,VALID,0,VALID,22.9793,VALID,38,VALID,1.79961,
2011-03-03, 02:29:05,VALID,999.505,VALID,0,VALID,85.8409,VALID,0,VALID,22.9013,VALID,352,VALID,1.09805,
2011-03-03, 02:30:05,VALID,999.498,VALID,0,VALID,86.3444,VALID,0,VALID,22.8232,VALID,348,VALID,0.664844,
2011-03-03, 02:31:05,VALID,999.493,VALID,0,VALID,86.6572,VALID,0,VALID,22.786,VALID,2,VALID,1.00625,
2011-03-03, 02:32:05,VALID,999.491,VALID,0,VALID,87.0311,VALID,0,VALID,22.7257,VALID,25,VALID,1.2418,
2011-03-03, 02:33:05,VALID,999.491,VALID,0,VALID,87.4126,VALID,0,VALID,22.6884,VALID,31,VALID,1.05352,
2011-03-03, 02:34:05,VALID,999.471,VALID,0,VALID,87.2905,VALID,0,VALID,22.6282,VALID,11,VALID,1.64531,
2011-03-03, 02:35:05,VALID,999.455,VALID,0,VALID,85.5815,VALID,0,VALID,22.6087,VALID,56,VALID,1.025,
2011-03-03, 02:36:05,VALID,999.436,VALID,0,VALID,84.7269,VALID,0,VALID,22.7647,VALID,68,VALID,1.89805,
2011-03-03, 02:37:05,VALID,999.452,VALID,0,VALID,84.6812,VALID,0,VALID,22.8818,VALID,24,VALID,0.284766,
2011-03-03, 02:38:05,VALID,999.44,VALID,0,VALID,84.7193,VALID,0,VALID,22.9013,VALID,10,VALID,0.0925781,
2011-03-03, 02:39:05,VALID,999.448,VALID,0,VALID,85.1542,VALID,0,VALID,22.9013,VALID,75,VALID,0.555859,
2011-03-03, 02:40:05,VALID,999.456,VALID,0,VALID,85.4975,VALID,0,VALID,22.8835,VALID,163,VALID,0.568359,
2011-03-03, 02:41:05,VALID,999.448,VALID,0,VALID,85.4823,VALID,0,VALID,22.8835,VALID,163,VALID,0.287891,
2011-03-03, 02:42:05,VALID,999.43,VALID,0,VALID,85.2915,VALID,0,VALID,22.8623,VALID,154,VALID,0.327344,
2011-03-03, 02:43:05,VALID,999.427,VALID,0,VALID,85.2763,VALID,0,VALID,22.8623,VALID,106,VALID,0.582812,
2011-03-03, 02:44:05,VALID,999.426,VALID,0,VALID,85.4289,VALID,0,VALID,22.8623,VALID,106,VALID,0.425781,
2011-03-03, 02:45:05,VALID,999.41,VALID,0,VALID,85.3907,VALID,0,VALID,22.8232,VALID,106,VALID,0.443359,
2011-03-03, 02:46:05,VALID,999.406,VALID,0,VALID,85.5662,VALID,0,VALID,22.8232,VALID,106,VALID,0.300391,
2011-03-03, 02:47:05,VALID,999.408,VALID,0,VALID,85.7951,VALID,0,VALID,22.8037,VALID,106,VALID,0.181641,
2011-03-03, 02:48:05,VALID,999.396,VALID,0,VALID,85.9706,VALID,0,VALID,22.8055,VALID,106,VALID,0.342969,
2011-03-03, 02:49:05,VALID,999.388,VALID,0,VALID,86.0621,VALID,0,VALID,22.8055,VALID,106,VALID,0.360156,
2011-03-03, 02:50:05,VALID,999.339,VALID,0,VALID,85.8866,VALID,0,VALID,22.7647,VALID,106,VALID,0.366016,
2011-03-03, 02:51:05,VALID,999.331,VALID,0,VALID,85.8256,VALID,0,VALID,22.7647,VALID,106,VALID,0.224609,
2011-03-03, 02:52:05,VALID,999.332,VALID,0,VALID,86.0774,VALID,0,VALID,22.7842,VALID,37,VALID,1.11992,
2011-03-03, 02:53:05,VALID,999.313,VALID,0,VALID,85.2686,VALID,0,VALID,22.7647,VALID,45,VALID,0.676172,
2011-03-03, 02:54:05,VALID,999.3,VALID,0,VALID,85.2076,VALID,0,VALID,22.8037,VALID,48,VALID,0.737109,
2011-03-03, 02:55:05,VALID,999.334,VALID,0,VALID,85.3602,VALID,0,VALID,22.8427,VALID,39,VALID,0.957812,
2011-03-03, 02:56:05,VALID,999.295,VALID,0,VALID,85.5051,VALID,0,VALID,22.8427,VALID,8,VALID,1.26133,
2011-03-03, 02:57:05,VALID,999.321,VALID,0,VALID,85.9324,VALID,0,VALID,22.8445,VALID,26,VALID,1.25195,
2011-03-03, 02:58:05,VALID,999.324,VALID,0,VALID,86.352,VALID,0,VALID,22.7842,VALID,53,VALID,1.45547,
2011-03-03, 02:59:05,VALID,999.322,VALID,0,VALID,86.7564,VALID,0,VALID,22.7257,VALID,70,VALID,1.18438,
2011-03-03, 03:00:05,VALID,999.347,VALID,0,VALID,86.8632,VALID,0,VALID,22.6672,VALID,80,VALID,1.19531,
2011-03-03, 03:01:05,VALID,999.343,VALID,0,VALID,86.848,VALID,0,VALID,22.6477,VALID,71,VALID,1.06562,
2011-03-03, 03:02:05,VALID,999.334,VALID,0,VALID,87.1379,VALID,0,VALID,22.6477,VALID,78,VALID,0.849609,
2011-03-03, 03:03:05,VALID,999.332,VALID,0,VALID,87.4431,VALID,0,VALID,22.6087,VALID,69,VALID,0.44375,
2011-03-03, 03:04:05,VALID,999.328,VALID,0,VALID,87.6796,VALID,0,VALID,22.5909,VALID,317,VALID,0.890625,
2011-03-03, 03:05:05,VALID,999.33,VALID,0,VALID,87.7406,VALID,0,VALID,22.5501,VALID,274,VALID,0.607031,
2011-03-03, 03:06:05,VALID,999.34,VALID,0,VALID,87.4583,VALID,0,VALID,22.5714,VALID,210,VALID,0.578125,
2011-03-03, 03:07:05,VALID,999.336,VALID,0,VALID,86.8327,VALID,0,VALID,22.5892,VALID,118,VALID,1.55156,
2011-03-03, 03:08:05,VALID,999.35,VALID,0,VALID,86.8022,VALID,0,VALID,22.6494,VALID,129,VALID,0.246875,
2011-03-03, 03:09:05,VALID,999.361,VALID,0,VALID,86.6343,VALID,0,VALID,22.6477,VALID,133,VALID,0.104687,
2011-03-03, 03:10:05,VALID,999.376,VALID,0,VALID,86.6038,VALID,0,VALID,22.6884,VALID,251,VALID,0.545703,
2011-03-03, 03:11:05,VALID,999.364,VALID,0,VALID,86.6801,VALID,0,VALID,22.7062,VALID,284,VALID,0.746875,
2011-03-03, 03:12:05,VALID,999.406,VALID,0,VALID,86.909,VALID,0,VALID,22.7257,VALID,5,VALID,1.11563,
2011-03-03, 03:13:05,VALID,999.428,VALID,0,VALID,86.6877,VALID,0,VALID,22.6867,VALID,36,VALID,1.19258,
2011-03-03, 03:14:05,VALID,999.416,VALID,0,VALID,86.5504,VALID,0,VALID,22.6867,VALID,58,VALID,1.37422,
2011-03-03, 03:15:05,VALID,999.434,VALID,0,VALID,86.558,VALID,0,VALID,22.7062,VALID,76,VALID,0.924219,
2011-03-03, 03:16:05,VALID,999.464,VALID,0,VALID,86.5275,VALID,0,VALID,22.7452,VALID,76,VALID,0.246484,
2011-03-03, 03:17:05,VALID,999.452,VALID,0,VALID,86.4665,VALID,0,VALID,22.7452,VALID,76,VALID,0.00585938,
2011-03-03, 03:18:05,VALID,999.439,VALID,0,VALID,86.4665,VALID,0,VALID,22.7452,VALID,76,VALID,0.399609,
2011-03-03, 03:19:05,VALID,999.433,VALID,0,VALID,86.4054,VALID,0,VALID,22.7452,VALID,104,VALID,0.967188,
2011-03-03, 03:20:05,VALID,999.44,VALID,0,VALID,86.0011,VALID,0,VALID,22.7842,VALID,104,VALID,0.955469,
2011-03-03, 03:21:05,VALID,999.452,VALID,0,VALID,85.9858,VALID,0,VALID,22.8037,VALID,105,VALID,1.06953,
2011-03-03, 03:22:05,VALID,999.477,VALID,0,VALID,86.1918,VALID,0,VALID,22.8232,VALID,117,VALID,0.824219,
2011-03-03, 03:23:05,VALID,999.479,VALID,0,VALID,86.3826,VALID,0,VALID,22.8445,VALID,111,VALID,0.708984,
2011-03-03, 03:24:05,VALID,999.471,VALID,0,VALID,86.558,VALID,0,VALID,22.8037,VALID,85,VALID,0.623438,
2011-03-03, 03:25:05,VALID,999.459,VALID,0,VALID,86.7717,VALID,0,VALID,22.825,VALID,85,VALID,0.487109,
2011-03-03, 03:26:05,VALID,999.477,VALID,0,VALID,86.6267,VALID,0,VALID,22.7647,VALID,85,VALID,0.520312,
2011-03-03, 03:27:05,VALID,999.459,VALID,0,VALID,86.703,VALID,0,VALID,22.7647,VALID,85,VALID,0.021875,
2011-03-03, 03:28:05,VALID,999.485,VALID,0,VALID,86.8709,VALID,0,VALID,22.7647,VALID,315,VALID,0.977734,
2011-03-03, 03:29:05,VALID,999.471,VALID,0,VALID,86.9777,VALID,0,VALID,22.7452,VALID,319,VALID,0.797656,
2011-03-03, 03:30:05,VALID,999.473,VALID,0,VALID,87.1074,VALID,0,VALID,22.7257,VALID,320,VALID,0.0578125,
2011-03-03, 03:31:05,VALID,999.46,VALID,0,VALID,86.4283,VALID,0,VALID,22.7062,VALID,145,VALID,1.44023,
2011-03-03, 03:32:05,VALID,999.484,VALID,0,VALID,85.7264,VALID,0,VALID,22.7452,VALID,134,VALID,1.16484,
2011-03-03, 03:33:05,VALID,999.504,VALID,0,VALID,85.8256,VALID,0,VALID,22.7842,VALID,160,VALID,0.487109,
2011-03-03, 03:34:05,VALID,999.495,VALID,0,VALID,86.1232,VALID,0,VALID,22.8037,VALID,170,VALID,0.289063,
2011-03-03, 03:35:05,VALID,999.521,VALID,0,VALID,86.2376,VALID,0,VALID,22.8037,VALID,170,VALID,0.232031,
2011-03-03, 03:36:05,VALID,999.495,VALID,0,VALID,86.1308,VALID,0,VALID,22.825,VALID,170,VALID,0,
2011-03-03, 03:37:05,VALID,999.518,VALID,0,VALID,86.1689,VALID,0,VALID,22.8037,VALID,170,VALID,0.223438,
2011-03-03, 03:38:05,VALID,999.488,VALID,0,VALID,86.1842,VALID,0,VALID,22.8037,VALID,170,VALID,0.271094,
2011-03-03, 03:39:05,VALID,999.489,VALID,0,VALID,86.146,VALID,0,VALID,22.8055,VALID,170,VALID,0.427734,
2011-03-03, 03:40:05,VALID,999.509,VALID,0,VALID,86.2071,VALID,0,VALID,22.7842,VALID,170,VALID,0.334375,
2011-03-03, 03:41:05,VALID,999.495,VALID,0,VALID,86.6267,VALID,0,VALID,22.786,VALID,170,VALID,0.380078,
2011-03-03, 03:42:05,VALID,999.494,VALID,0,VALID,86.97,VALID,0,VALID,22.7452,VALID,170,VALID,0.338672,
2011-03-03, 03:43:05,VALID,999.496,VALID,0,VALID,86.8022,VALID,0,VALID,22.7257,VALID,170,VALID,0,
2011-03-03, 03:44:05,VALID,999.481,VALID,0,VALID,86.8327,VALID,0,VALID,22.7469,VALID,170,VALID,0.244531,
2011-03-03, 03:45:05,VALID,999.457,VALID,0,VALID,87.0463,VALID,0,VALID,22.7257,VALID,170,VALID,0.387109,
2011-03-03, 03:46:05,VALID,999.445,VALID,0,VALID,86.9319,VALID,0,VALID,22.7274,VALID,170,VALID,0.322266,